N216TB TJPS-TIST

Flight info

Callsign N216TB
Flight time 0h 38m
Altitude 7000
Route DCT CLAYO DCT SANLO DCT LODZI DCT KUTHO DCT JAQYY DCT
Aircraft A36/L-L/C

Departure

Time 2026-04-29 01:41
Airport Mercedita International Airport (TJPS)

Arrival

Time 2026-04-29 02:19
Airport Cyril E. King Airport (TIST)
Time Latitude Longitude Altitude Speed Heading
2026-04-29 01:34 18.01010 -66.56301 31 ft 0 kts 319°
2026-04-29 01:35 18.01010 -66.56302 31 ft 0 kts 319°
2026-04-29 01:36 18.01055 -66.56278 31 ft 13 kts 75°
2026-04-29 01:36 18.00990 -66.56225 31 ft 14 kts 194°
2026-04-29 01:36 18.00941 -66.56273 31 ft 7 kts 283°
2026-04-29 01:36 18.00954 -66.56317 31 ft 5 kts 286°
2026-04-29 01:37 18.00962 -66.56348 31 ft 5 kts 284°
2026-04-29 01:37 18.00979 -66.56397 31 ft 9 kts 290°
2026-04-29 01:37 18.01000 -66.56464 32 ft 11 kts 289°
2026-04-29 01:37 18.01024 -66.56540 32 ft 11 kts 287°
2026-04-29 01:38 18.01048 -66.56620 32 ft 11 kts 290°
2026-04-29 01:38 18.01074 -66.56697 32 ft 11 kts 288°
2026-04-29 01:38 18.01095 -66.56768 32 ft 9 kts 288°
2026-04-29 01:38 18.01102 -66.56826 32 ft 7 kts 236°
2026-04-29 01:39 18.01081 -66.56837 32 ft 0 kts 195°
2026-04-29 01:39 18.01064 -66.56842 32 ft 5 kts 195°
2026-04-29 01:40 18.01017 -66.56849 32 ft 7 kts 159°
2026-04-29 01:40 18.00984 -66.56791 33 ft 26 kts 108°
2026-04-29 01:40 18.00851 -66.56362 32 ft 92 kts 108°
2026-04-29 01:40 18.00615 -66.55639 228 ft 111 kts 111°
2026-04-29 01:41 18.00260 -66.54842 522 ft 126 kts 116°
2026-04-29 01:41 17.99864 -66.54000 839 ft 134 kts 115°
2026-04-29 01:41 17.99616 -66.53060 1167 ft 137 kts 81°
2026-04-29 01:41 18.00150 -66.52262 1509 ft 138 kts 39°
2026-04-29 01:42 18.00900 -66.51633 1847 ft 138 kts 40°
2026-04-29 01:42 18.01640 -66.51003 2184 ft 137 kts 40°
2026-04-29 01:42 18.02376 -66.50390 2523 ft 134 kts 36°
2026-04-29 01:42 18.03153 -66.49861 2861 ft 132 kts 39°
2026-04-29 01:43 18.03740 -66.49134 3193 ft 130 kts 63°
2026-04-29 01:43 18.04126 -66.48284 3525 ft 128 kts 65°
2026-04-29 01:43 18.04476 -66.47460 3850 ft 124 kts 66°
2026-04-29 01:43 18.04815 -66.46630 4188 ft 123 kts 67°
2026-04-29 01:44 18.05148 -66.45805 4506 ft 124 kts 67°
2026-04-29 01:44 18.05483 -66.44968 4803 ft 124 kts 67°
2026-04-29 01:44 18.05794 -66.44119 5082 ft 125 kts 74°
2026-04-29 01:44 18.06036 -66.43240 5369 ft 125 kts 72°
2026-04-29 01:45 18.06286 -66.42364 5660 ft 125 kts 73°
2026-04-29 01:45 18.06530 -66.41505 5943 ft 124 kts 73°
2026-04-29 01:45 18.06774 -66.40647 6232 ft 121 kts 72°
2026-04-29 01:45 18.07013 -66.39809 6517 ft 118 kts 72°
2026-04-29 01:46 18.07246 -66.38994 6786 ft 115 kts 72°
2026-04-29 01:46 18.07473 -66.38191 6991 ft 119 kts 72°
2026-04-29 01:46 18.07726 -66.37295 7006 ft 135 kts 73°
2026-04-29 01:46 18.08001 -66.36314 7017 ft 145 kts 73°
2026-04-29 01:47 18.08294 -66.35279 7012 ft 150 kts 72°
2026-04-29 01:47 18.08594 -66.34215 7013 ft 153 kts 73°
2026-04-29 01:47 18.08896 -66.33151 7014 ft 155 kts 73°
2026-04-29 01:47 18.08931 -66.33024 7009 ft 155 kts 73°
2026-04-29 01:48 18.09018 -66.32715 7010 ft 155 kts 73°
2026-04-29 01:48 18.09094 -66.32448 7016 ft 156 kts 73°
2026-04-29 01:48 18.09380 -66.31436 7014 ft 157 kts 73°
2026-04-29 01:48 18.09691 -66.30338 7017 ft 157 kts 73°
2026-04-29 01:49 18.10003 -66.29236 7017 ft 157 kts 73°
2026-04-29 01:49 18.10315 -66.28133 7012 ft 157 kts 73°
2026-04-29 01:49 18.10622 -66.27049 7018 ft 157 kts 72°
2026-04-29 01:49 18.10931 -66.25954 7014 ft 156 kts 73°
2026-04-29 01:50 18.11241 -66.24856 7020 ft 157 kts 73°
2026-04-29 01:50 18.11553 -66.23753 7017 ft 158 kts 73°
2026-04-29 01:50 18.11866 -66.22648 7017 ft 158 kts 73°
2026-04-29 01:50 18.12179 -66.21541 7021 ft 158 kts 73°
2026-04-29 01:51 18.12493 -66.20430 7018 ft 158 kts 73°
2026-04-29 01:51 18.12800 -66.19340 7019 ft 158 kts 73°
2026-04-29 01:51 18.13112 -66.18234 7021 ft 158 kts 73°
2026-04-29 01:51 18.13422 -66.17133 7015 ft 157 kts 73°
2026-04-29 01:52 18.13734 -66.16030 7017 ft 157 kts 73°
2026-04-29 01:52 18.14045 -66.14927 7013 ft 158 kts 73°
2026-04-29 01:52 18.14357 -66.13822 7011 ft 157 kts 73°
2026-04-29 01:52 18.14668 -66.12720 7017 ft 157 kts 73°
2026-04-29 01:53 18.14979 -66.11617 7013 ft 157 kts 73°
2026-04-29 01:53 18.15289 -66.10516 7014 ft 157 kts 72°
2026-04-29 01:53 18.15600 -66.09414 7014 ft 157 kts 73°
2026-04-29 01:53 18.15906 -66.08326 7013 ft 157 kts 73°
2026-04-29 01:54 18.16217 -66.07222 7013 ft 158 kts 73°
2026-04-29 01:54 18.16530 -66.06112 7014 ft 158 kts 73°
2026-04-29 01:54 18.16842 -66.05004 7013 ft 158 kts 73°
2026-04-29 01:54 18.17154 -66.03895 7009 ft 158 kts 73°
2026-04-29 01:55 18.17465 -66.02790 7009 ft 157 kts 73°
2026-04-29 01:55 18.17775 -66.01685 7009 ft 158 kts 73°
2026-04-29 01:55 18.18086 -66.00581 7011 ft 158 kts 73°
2026-04-29 01:55 18.18393 -65.99489 7009 ft 158 kts 73°
2026-04-29 01:56 18.18704 -65.98383 7011 ft 158 kts 73°
2026-04-29 01:56 18.19015 -65.97275 7011 ft 158 kts 73°
2026-04-29 01:56 18.19326 -65.96169 7008 ft 158 kts 73°
2026-04-29 01:56 18.19637 -65.95065 7013 ft 157 kts 73°
2026-04-29 01:57 18.19946 -65.93962 7009 ft 157 kts 73°
2026-04-29 01:57 18.20137 -65.93230 7012 ft 157 kts 77°
2026-04-29 01:57 18.20370 -65.92105 7012 ft 158 kts 76°
2026-04-29 01:57 18.20697 -65.90622 7008 ft 157 kts 76°
2026-04-29 01:58 18.20941 -65.89500 7009 ft 157 kts 76°
2026-04-29 01:58 18.21184 -65.88380 7011 ft 157 kts 76°
2026-04-29 01:58 18.21427 -65.87258 7007 ft 157 kts 76°
2026-04-29 01:58 18.21669 -65.86136 7012 ft 158 kts 76°
2026-04-29 01:59 18.21830 -65.85392 7008 ft 157 kts 76°
2026-04-29 01:59 18.22072 -65.84268 7007 ft 158 kts 77°
2026-04-29 01:59 18.22315 -65.83145 7008 ft 157 kts 76°
2026-04-29 01:59 18.22635 -65.81662 7005 ft 156 kts 76°
2026-04-29 02:00 18.22876 -65.80549 7008 ft 156 kts 76°
2026-04-29 02:00 18.23116 -65.79435 7010 ft 156 kts 76°
2026-04-29 02:00 18.23278 -65.78683 7010 ft 156 kts 76°
2026-04-29 02:00 18.23515 -65.77582 7008 ft 156 kts 76°
2026-04-29 02:01 18.23757 -65.76465 7007 ft 157 kts 76°
2026-04-29 02:01 18.23997 -65.75347 7006 ft 157 kts 76°
2026-04-29 02:01 18.24237 -65.74228 7007 ft 157 kts 77°
2026-04-29 02:01 18.24479 -65.73107 6998 ft 157 kts 76°
2026-04-29 02:02 18.24798 -65.71623 7000 ft 157 kts 76°
2026-04-29 02:02 18.24962 -65.70866 7006 ft 157 kts 77°
2026-04-29 02:02 18.25203 -65.69745 7003 ft 157 kts 77°
2026-04-29 02:02 18.25440 -65.68642 7001 ft 157 kts 76°
2026-04-29 02:03 18.25681 -65.67522 6995 ft 157 kts 76°
2026-04-29 02:03 18.25922 -65.66401 6996 ft 157 kts 76°
2026-04-29 02:03 18.26163 -65.65280 6996 ft 157 kts 76°
2026-04-29 02:03 18.26403 -65.64161 6995 ft 157 kts 76°
2026-04-29 02:04 18.26643 -65.63045 6995 ft 157 kts 76°
2026-04-29 02:04 18.26883 -65.61927 6997 ft 157 kts 77°
2026-04-29 02:04 18.27123 -65.60808 6997 ft 157 kts 76°
2026-04-29 02:04 18.27304 -65.59675 6997 ft 157 kts 82°
2026-04-29 02:05 18.27452 -65.58553 6994 ft 157 kts 81°
2026-04-29 02:05 18.27608 -65.57416 6992 ft 157 kts 81°
2026-04-29 02:05 18.27761 -65.56279 6998 ft 157 kts 81°
2026-04-29 02:05 18.27913 -65.55145 6996 ft 157 kts 81°
2026-04-29 02:06 18.28064 -65.54009 6996 ft 157 kts 81°
2026-04-29 02:06 18.28216 -65.52875 6993 ft 157 kts 81°
2026-04-29 02:06 18.28368 -65.51741 6994 ft 157 kts 81°
2026-04-29 02:06 18.28519 -65.50606 6995 ft 157 kts 81°
2026-04-29 02:07 18.28668 -65.49486 6994 ft 157 kts 81°
2026-04-29 02:07 18.28820 -65.48349 6992 ft 157 kts 81°
2026-04-29 02:07 18.28972 -65.47210 6993 ft 157 kts 81°
2026-04-29 02:07 18.29123 -65.46072 6991 ft 157 kts 81°
2026-04-29 02:08 18.29274 -65.44935 6993 ft 157 kts 81°
2026-04-29 02:08 18.29426 -65.43797 6992 ft 157 kts 81°
2026-04-29 02:08 18.29577 -65.42659 6996 ft 157 kts 81°
2026-04-29 02:08 18.29729 -65.41519 6993 ft 157 kts 81°
2026-04-29 02:09 18.29878 -65.40394 6993 ft 157 kts 81°
2026-04-29 02:09 18.30030 -65.39256 6994 ft 157 kts 81°
2026-04-29 02:09 18.30181 -65.38115 6929 ft 161 kts 81°
2026-04-29 02:09 18.30339 -65.36918 6649 ft 168 kts 81°
2026-04-29 02:10 18.30501 -65.35683 6378 ft 172 kts 81°
2026-04-29 02:10 18.30668 -65.34428 6089 ft 175 kts 82°
2026-04-29 02:10 18.30837 -65.33153 5802 ft 177 kts 82°
2026-04-29 02:10 18.31006 -65.31871 5516 ft 177 kts 82°
2026-04-29 02:11 18.31174 -65.30600 5230 ft 174 kts 82°
2026-04-29 02:11 18.31338 -65.29361 4943 ft 173 kts 82°
2026-04-29 02:11 18.31503 -65.28113 4657 ft 172 kts 82°
2026-04-29 02:11 18.31667 -65.26867 4362 ft 172 kts 82°
2026-04-29 02:12 18.31833 -65.25620 4067 ft 172 kts 82°
2026-04-29 02:12 18.31997 -65.24372 3780 ft 172 kts 82°
2026-04-29 02:12 18.32161 -65.23129 3487 ft 171 kts 82°
2026-04-29 02:12 18.32325 -65.21887 3203 ft 172 kts 82°
2026-04-29 02:13 18.32489 -65.20642 2908 ft 171 kts 82°
2026-04-29 02:13 18.32651 -65.19416 2621 ft 171 kts 82°
2026-04-29 02:13 18.32814 -65.18174 2334 ft 172 kts 83°
2026-04-29 02:13 18.32881 -65.16942 2205 ft 163 kts 88°
2026-04-29 02:14 18.32930 -65.15787 2200 ft 154 kts 87°
2026-04-29 02:14 18.32982 -65.14667 2193 ft 152 kts 88°
2026-04-29 02:14 18.33031 -65.13571 2189 ft 149 kts 88°
2026-04-29 02:14 18.33078 -65.12486 2190 ft 147 kts 87°
2026-04-29 02:15 18.33125 -65.11412 2193 ft 148 kts 88°
2026-04-29 02:15 18.33172 -65.10330 2193 ft 147 kts 87°
2026-04-29 02:15 18.33186 -65.09240 2022 ft 150 kts 91°
2026-04-29 02:15 18.33199 -65.08204 1822 ft 136 kts 88°
2026-04-29 02:16 18.33231 -65.07243 1654 ft 128 kts 89°
2026-04-29 02:16 18.33269 -65.06351 1491 ft 111 kts 87°
2026-04-29 02:16 18.33307 -65.05617 1359 ft 92 kts 86°
2026-04-29 02:16 18.33341 -65.04974 1244 ft 84 kts 85°
2026-04-29 02:17 18.33372 -65.04406 1139 ft 72 kts 86°
2026-04-29 02:17 18.33400 -65.03828 1055 ft 89 kts 85°
2026-04-29 02:17 18.33431 -65.03102 942 ft 106 kts 87°
2026-04-29 02:17 18.33469 -65.02314 803 ft 109 kts 87°
2026-04-29 02:18 18.33510 -65.01509 653 ft 110 kts 87°
2026-04-29 02:18 18.33547 -65.00763 523 ft 92 kts 87°
2026-04-29 02:18 18.33582 -65.00128 397 ft 83 kts 86°
2026-04-29 02:18 18.33635 -64.99549 349 ft 78 kts 79°
2026-04-29 02:19 18.33663 -64.98978 145 ft 81 kts 88°
2026-04-29 02:19 18.33692 -64.98433 72 ft 69 kts 85°
2026-04-29 02:19 18.33713 -64.97975 23 ft 52 kts 86°
2026-04-29 02:19 18.33724 -64.97673 23 ft 25 kts 88°
2026-04-29 02:20 18.33730 -64.97494 22 ft 24 kts 88°
2026-04-29 02:20 18.33736 -64.97312 20 ft 25 kts 86°
2026-04-29 02:20 18.33742 -64.97131 18 ft 25 kts 88°
2026-04-29 02:20 18.33750 -64.96943 14 ft 26 kts 88°
2026-04-29 02:21 18.33754 -64.96772 11 ft 11 kts 85°
2026-04-29 02:21 18.33761 -64.96702 11 ft 8 kts 72°
2026-04-29 02:21 18.33821 -64.96688 11 ft 11 kts 356°
2026-04-29 02:21 18.33879 -64.96689 12 ft 3 kts 359°
2026-04-29 02:22 18.33907 -64.96697 12 ft 4 kts 314°
2026-04-29 02:22 18.33913 -64.96711 13 ft 0 kts 272°
2026-04-29 02:22 18.33902 -64.96730 13 ft 5 kts 189°
2026-04-29 02:22 18.33889 -64.96728 13 ft 0 kts 175°